Theta_e
344 342 342 345 345 345 345 345 344 344 344 344 343 343 341 341 340 337 340 339 340 338 340 341 342 341 338 339 336 337 339 340 338 338 339 338 339 341 340 340 343 347 328
342 342 343 345 345 345 345 345 344 344 344 342 341 340 340 339 337 338 340 339 337 335 336 338 339 340 340 341 337 339 339 335 334 336 337 338 340 340 340 342 334 339 327
346 340 339 338 338 342 341 343 342 343 337 334 335 337 339 339 339 339 339 337 337 336 339 340 339 339 340 338 338 336 336 340 340 344 347 351 340 336 338 340 344 340 334
347 345 342 336 335 334 337 340 342 338 335 336 339 341 340 340 338 338 340 341 339 342 339 339 338 338 338 337 339 341 341 340 343 347 347 345 345 333 333 338 339 338 339
344 347 340 338 337 336 335 336 346 338 339 338 339 341 339 337 338 339 338 339 339 336 337 337 337 337 337 333 331 331 329 330 336 345 345 345 346 334 335 334 332 333 340
344 350 337 337 337 335 335 335 335 338 340 342 342 340 340 339 339 341 340 340 340 337 338 340 339 339 337 338 338 339 336 340 347 345 345 340 347 334 333 336 342 340 336
347 349 336 336 338 339 334 335 340 338 336 343 338 339 338 340 341 340 340 341 338 339 340 340 340 339 340 341 341 342 341 342 348 347 344 346 342 334 329 332 335 335 336
348 350 346 337 340 341 338 338 338 336 341 338 339 341 339 341 341 339 341 335 338 338 340 339 338 340 341 341 343 342 342 348 349 347 344 345 336 335 335 336 338 333 329
348 350 349 345 341 340 341 340 338 341 343 337 341 340 342 341 339 335 335 333 336 337 337 337 338 341 342 342 342 342 342 345 349 345 348 345 335 337 337 336 335 336 334
348 350 350 351 347 341 344 343 343 343 342 339 339 341 340 339 332 329 327 327 332 336 333 333 336 340 340 342 343 344 341 340 351 347 347 345 336 336 338 338 338 339 339
349 348 346 351 348 345 343 342 342 342 339 339 340 341 342 347 345 342 348 324 324 329 332 332 338 340 343 343 340 340 346 351 346 345 348 341 338 335 336 336 336 338 340
348 349 349 349 344 345 342 343 347 342 338 338 348 344 346 348 347 346 338 326 326 328 333 337 340 342 346 349 349 349 350 343 345 341 345 337 337 340 339 338 338 340 342
348 348 347 348 350 349 343 344 349 341 339 339 348 345 347 350 345 341 338 341 335 345 350 346 345 350 351 348 344 349 347 346 346 345 344 341 341 340 339 338 337 337 339
344 345 347 347 346 347 348 347 347 339 338 338 348 342 345 347 342 343 342 346 348 348 347 350 350 350 350 349 349 342 343 340 342 345 348 340 342 343 342 342 341 341 343
344 345 346 346 346 348 348 345 340 337 338 338 343 350 346 346 344 343 344 346 348 345 349 349 349 353 351 351 348 345 346 346 346 346 349 346 338 340 341 341 341 343 344
345 345 348 346 345 347 348 338 338 337 339 338 342 345 348 346 344 344 346 346 347 346 347 348 350 349 347 346 347 347 345 346 348 345 348 349 348 341 342 342 342 343 346
346 346 345 346 347 348 340 339 338 339 339 342 347 351 346 349 344 345 345 347 347 348 345 349 350 348 350 346 346 345 345 344 346 348 348 348 350 348 343 342 342 343 346
346 346 346 346 346 347 339 338 339 343 347 348 346 345 347 350 345 346 346 347 349 348 345 345 343 344 346 345 344 342 342 342 347 347 349 349 348 349 348 347 343 344 345
346 348 346 346 346 345 345 337 341 342 346 346 342 344 346 346 346 349 346 346 345 347 346 345 346 343 348 345 341 343 344 344 345 346 347 349 349 348 349 349 340 345 346
344 345 347 347 344 344 345 340 342 346 345 344 334 347 343 347 346 349 344 348 346 346 350 348 345 351 344 350 343 341 339 345 345 347 345 348 350 351 350 352 348 343 345
345 346 345 345 344 343 345 345 345 345 346 346 344 346 348 351 347 339 345 345 343 347 354 351 352 350 347 348 348 346 348 346 348 346 345 348 350 349 349 353 355 347 344
346 346 346 345 344 344 346 347 344 345 347 345 344 347 349 348 350 349 348 346 347 348 345 352 350 349 348 351 344 344 342 344 343 345 342 349 347 350 351 352 353 351 346
346 347 347 347 347 344 345 346 345 345 347 343 344 340 348 350 350 348 350 349 354 345 353 352 349 350 350 346 346 347 347 349 344 344 347 346 347 347 347 352 354 353 348
345 348 349 348 347 347 346 346 347 348 346 343 342 343 346 350 350 350 351 350 353 349 352 350 347 349 350 347 347 348 347 347 346 343 345 346 343 348 351 348 352 353 353
346 348 349 349 347 347 347 346 347 345 344 340 343 343 340 347 351 350 350 351 352 350 349 345 352 350 352 348 346 343 344 346 348 347 345 345 344 344 344 351 347 351 351
346 348 348 350 346 347 347 347 345 346 339 340 336 348 349 347 350 351 349 351 350 349 348 351 351 350 350 348 351 348 343 343 343 345 344 344 342 342 344 342 351 349 352
Wind_Speed
26 24 19 15 14 12 11 13 12 11 11 10 8 7 7 7 7 8 10 11 10 10 10 8 5 4 5 5 10 9 8 7 7 8 8 7 8 8 8 9 8 4 4
25 23 21 17 14 12 12 12 11 11 9 9 7 6 5 6 7 8 10 10 10 10 10 8 6 6 7 8 10 10 9 8 9 10 8 9 8 9 8 8 4 6 6
21 23 21 17 15 12 11 11 11 11 10 8 6 6 7 7 9 8 8 10 10 11 11 11 10 11 11 11 11 11 10 11 15 14 11 9 3 8 8 8 9 8 7
21 22 18 18 14 13 12 11 11 10 8 7 7 6 7 7 7 8 9 11 11 12 12 13 14 15 15 13 12 11 11 11 14 7 6 4 11 11 8 7 7 7 6
21 23 16 16 14 13 11 11 10 10 8 6 6 5 5 6 8 9 10 11 11 12 12 14 14 14 15 14 12 11 10 10 9 9 6 2 13 12 7 5 5 4 7
19 17 19 17 13 11 11 10 10 9 7 3 3 4 6 8 8 10 11 12 12 13 15 15 14 13 12 11 9 8 8 10 9 5 5 3 7 7 4 4 4 3 2
20 17 17 15 12 10 10 10 10 8 4 1 4 6 7 9 10 10 11 11 12 13 13 12 12 12 12 10 8 7 7 8 11 5 3 6 6 1 2 3 4 3 3
17 14 15 15 11 9 9 8 6 4 3 5 6 8 9 10 10 10 10 11 12 12 13 11 10 10 10 9 7 6 7 10 8 5 5 5 10 4 3 4 4 2 2
16 17 14 13 13 12 8 8 8 4 5 6 6 7 9 10 8 9 10 10 12 11 10 9 8 7 8 7 4 6 9 8 7 5 5 4 10 11 7 2 2 1 1
16 14 16 14 10 13 8 9 7 8 6 7 6 8 9 9 8 8 8 10 11 11 9 8 6 6 6 6 4 7 7 7 20 8 7 3 5 2 4 11 6 4 0
14 14 14 13 15 13 13 8 8 10 11 9 6 9 12 9 11 9 10 8 9 9 8 7 7 6 7 7 5 7 6 5 5 6 5 8 8 5 6 4 3 5 5
15 15 14 17 11 12 12 12 12 13 13 10 10 9 14 13 8 8 8 8 8 9 8 8 7 8 8 7 7 8 11 6 1 6 3 8 5 4 5 6 3 5 6
17 14 12 12 18 15 11 12 10 12 13 10 6 9 12 5 8 6 5 6 9 7 6 5 5 6 2 9 6 12 10 12 7 13 6 5 5 4 5 5 6 3 5
17 15 16 13 12 13 14 13 14 14 12 13 9 11 12 9 7 9 5 7 7 2 5 2 3 2 0 4 7 6 4 7 10 7 4 6 6 5 4 4 4 4 3
17 15 15 16 16 15 14 15 17 12 13 13 10 10 9 7 8 9 8 7 4 4 1 1 1 1 4 9 7 6 8 3 5 4 1 8 7 6 4 4 4 3 2
18 19 14 15 16 14 13 14 13 11 15 22 9 11 10 8 10 8 8 7 5 3 3 1 2 2 4 6 5 4 2 4 3 5 8 9 10 6 6 4 3 2 1
18 19 19 17 14 14 14 13 8 14 21 14 10 8 16 5 11 8 8 7 5 4 2 2 3 3 5 6 3 1 3 2 1 5 6 7 9 9 8 7 5 4 2
19 19 19 17 17 14 14 11 19 17 14 11 9 9 10 8 8 12 8 7 7 4 2 3 3 6 6 6 2 3 3 5 4 6 5 6 6 6 9 6 7 8 3
15 14 16 21 18 18 16 12 18 13 13 11 13 12 11 8 8 10 10 8 6 4 3 6 2 3 6 6 6 6 4 3 7 5 7 7 5 3 3 7 7 7 5
17 18 15 16 19 22 17 14 18 14 12 11 11 10 11 9 9 9 9 6 7 5 6 4 6 3 6 8 7 4 5 4 2 3 5 5 2 2 1 2 4 4 4
18 19 19 18 21 24 22 20 17 18 16 15 13 13 10 9 10 12 8 8 7 7 2 2 5 6 6 6 7 8 1 1 3 2 3 4 4 0 1 2 9 6 9
20 20 20 18 20 23 24 21 20 18 17 16 13 15 13 11 11 10 10 7 9 6 9 5 6 5 6 1 9 10 9 6 4 2 2 0 4 2 3 6 5 8 5
22 22 21 20 18 22 20 22 21 20 17 19 14 18 14 12 11 13 11 12 6 12 10 6 3 6 5 5 7 5 7 6 9 2 1 1 5 8 10 3 7 11 4
23 22 21 21 21 21 21 22 24 20 17 21 16 14 15 12 11 12 12 12 10 8 9 2 6 9 4 7 4 3 8 7 8 8 6 6 4 5 6 5 5 11 4
24 23 23 22 22 23 25 22 20 21 17 16 18 16 16 13 12 12 14 13 13 12 9 10 7 6 7 6 9 7 8 8 10 6 12 9 7 4 3 5 7 8 3
25 24 24 24 23 23 26 25 26 22 22 16 18 17 13 15 12 15 13 14 13 13 13 11 11 10 11 13 9 7 9 9 10 11 12 12 11 11 6 6 7 1 4
Wind_Direction
141 136 132 142 142 150 146 139 133 133 132 131 122 113 107 97 79 75 89 98 91 96 109 121 118 118 104 90 107 117 106 98 89 82 84 101 110 110 106 105 103 108 149
143 143 140 147 151 154 154 144 136 135 131 131 126 120 109 94 91 89 93 94 95 103 108 111 106 113 111 110 104 108 103 98 90 83 77 74 101 108 116 117 121 133 160
144 150 148 155 159 160 152 151 144 137 135 129 120 112 106 99 98 95 94 97 103 105 108 108 109 109 110 109 108 105 101 96 90 80 75 113 116 113 119 129 131 154 139
155 145 148 152 151 152 148 146 139 132 128 118 111 112 104 102 101 106 107 105 109 107 111 109 107 107 110 107 100 96 90 95 97 79 209 170 164 120 120 130 144 152 142
154 140 171 148 150 148 147 143 133 128 120 107 109 115 109 110 114 115 114 112 113 114 116 112 109 111 110 96 91 87 90 90 90 53 338 295 72 77 97 116 100 103 130
158 154 167 149 144 152 147 146 135 127 123 103 88 122 126 123 123 122 123 121 116 121 120 114 111 109 99 89 88 84 88 100 76 55 15 359 353 22 77 117 136 145 145
160 165 166 160 161 163 152 149 142 137 123 88 126 128 134 130 131 130 129 128 128 125 127 119 121 113 105 97 88 84 99 106 93 113 75 53 350 71 136 140 154 167 170
159 162 173 168 162 162 151 154 154 151 127 117 126 140 136 133 133 136 136 134 132 128 127 121 121 113 108 108 105 104 92 113 105 124 112 93 52 79 138 156 162 172 174
165 155 162 169 164 170 160 166 165 169 142 135 135 147 135 132 136 142 139 140 138 135 132 127 123 112 110 109 104 77 63 102 127 119 124 93 46 56 78 98 117 127 291
170 157 163 166 177 166 164 175 167 166 152 143 149 142 138 129 119 118 132 142 146 148 147 137 126 110 103 85 46 53 83 37 212 53 90 284 339 31 42 59 65 59 332
168 162 176 178 167 165 166 158 168 163 155 146 139 140 115 127 107 105 167 138 141 149 151 140 124 112 101 74 35 71 73 219 8 63 118 349 343 341 343 332 355 15 307
170 167 176 167 158 157 164 153 161 163 152 157 163 157 149 150 158 165 158 130 123 120 116 107 96 87 47 295 285 338 21 354 205 90 75 348 353 351 343 356 1 284 288
173 167 170 148 152 147 147 144 150 167 160 169 147 161 143 133 163 147 143 122 106 97 99 40 39 6 348 326 3 330 13 337 320 55 23 2 352 326 306 301 293 303 291
172 167 170 162 167 163 160 163 165 161 148 166 174 150 144 156 164 167 149 156 170 162 156 204 202 304 13 310 331 24 345 355 13 13 0 7 354 327 320 320 316 309 294
173 169 188 175 176 167 158 173 173 180 179 187 166 161 154 176 174 167 170 161 194 161 168 120 292 317 265 251 343 9 346 24 8 318 210 360 357 8 329 317 325 334 310
177 176 167 177 189 177 184 175 182 214 226 194 168 160 162 173 178 177 173 164 166 181 175 196 266 296 272 349 11 324 316 346 0 336 353 319 338 345 7 352 325 336 40
184 183 189 189 179 180 185 185 194 165 155 144 152 180 165 180 181 180 173 178 181 211 222 252 294 278 305 320 359 56 265 277 20 322 319 324 313 320 343 13 9 1 1
191 190 189 186 182 182 192 181 164 153 165 175 173 185 177 168 175 159 184 189 188 201 222 242 288 275 277 289 294 306 320 293 269 280 324 315 301 300 333 356 6 24 355
182 185 189 190 190 188 207 184 166 176 175 181 183 153 174 179 189 174 193 207 219 221 244 253 117 266 302 284 275 261 254 311 299 2 329 321 301 279 17 331 1 354 6
181 182 186 192 195 194 209 192 192 191 188 179 168 166 196 177 190 167 209 215 194 221 211 206 224 331 266 296 284 283 267 321 279 305 341 339 345 333 110 218 304 44 341
184 182 183 191 206 207 198 188 192 191 193 187 187 187 187 179 193 190 204 224 224 249 305 97 246 241 280 328 314 243 203 240 195 149 8 27 41 60 198 202 218 278 7
191 189 187 189 207 197 200 190 190 194 192 186 189 195 182 201 194 199 199 208 209 234 260 216 245 275 294 289 319 339 353 331 273 246 28 2 299 271 205 170 204 257 284
196 194 193 191 199 200 181 184 190 194 191 188 193 202 197 201 209 201 222 203 210 215 226 204 217 263 290 304 328 311 311 17 332 26 20 195 320 354 3 313 196 237 264
198 197 195 192 190 191 184 188 194 193 194 195 195 205 199 209 208 222 221 219 223 213 274 274 240 253 285 294 291 290 307 299 323 315 312 277 310 339 359 357 269 230 174
198 197 195 192 192 190 193 193 195 188 191 194 199 208 214 222 213 221 223 219 225 227 245 242 240 261 265 282 284 278 295 289 275 281 294 294 317 325 308 289 9 343 20
197 196 195 192 197 190 195 194 190 204 198 199 201 199 205 212 226 217 218 222 229 230 234 246 262 261 255 249 254 276 277 277 274 270 276 284 287 291 289 301 246 234 299